AO-07 1 07530U 74089B 18015.90266883 -.00000049 00000-0 -28759-4 0 9990 2 07530 101.6649 345.6455 0011824 270.7317 112.1617 12.53630685975514 UO-11 1 14781U 84021B 18016.11928154 .00000064 00000-0 14157-4 0 9995 2 14781 97.6701 58.6502 0007655 213.5386 146.5344 14.82973688821903 LO-19 1 20442U 90005G 18016.40443940 -.00000007 00000-0 13501-4 0 9992 2 20442 98.5970 315.9467 0010783 235.5503 124.4663 14.32884316462153 HUBBLE 1 20580U 90037B 18016.19446696 .00000480 00000-0 18484-4 0 9996 2 20580 28.4708 39.8065 0002470 308.8812 116.3776 15.08963414322481 MET-2/21 1 22782U 93055A 18015.96996028 .00000038 00000-0 21093-4 0 9997 2 22782 082.5472 214.7185 0022023 191.1550 276.8240 13.83805993230856 AO-27 1 22825U 93061C 18016.17929701 -.00000005 00000-0 16005-4 0 9992 2 22825 98.8430 349.7050 0009455 72.1033 288.1179 14.30019376267847 IO-26 1 22826U 93061D 18016.51107790 -.00000016 00000-0 11514-4 0 9999 2 22826 98.8371 350.0985 0009889 62.0367 298.1814 14.30349998268072 FO-29 1 24278U 96046B 18015.83003827 -.00000010 00000-0 23578-4 0 9995 2 24278 98.5311 235.4527 0350959 146.0387 216.3767 13.53080417 57635 NOAA-15 1 25338U 98030A 18015.84472334 .00000021 00000-0 27856-4 0 9996 2 25338 098.7766 032.1172 0009792 313.5332 046.5033 14.25835266023052 GO-32 1 25397U 98043D 18016.08149511 -.00000027 00000-0 73794-5 0 9990 2 25397 98.6349 319.1656 0002369 95.2478 264.8971 14.23637930 14081 ISS 1 25544U 98067A 18015.76213144 .00002375 00000-0 42846-4 0 9998 2 25544 051.6430 058.5835 0003578 019.8447 092.3735 15.54313934094810 NO-44 1 26931U 01043C 18016.42633727 -.00000016 00000-0 25746-4 0 9995 2 26931 67.0507 260.9972 0005289 277.2355 82.8145 14.30490879850846 SO-50 1 27607U 02058C 18015.91003091 -.00000021 00000-0 17550-4 0 9991 2 27607 064.5538 195.4716 0046691 006.5024 353.6674 14.75412065810368 CO-55 1 27844U 03031E 18015.77369022 .00000060 00000-0 46746-4 0 9990 2 27844 98.6884 26.6682 0010833 92.6787 267.5631 14.22088832754536 CO-57 1 27848U 03031J 18015.69076628 .00000041 00000-0 38533-4 0 9996 2 27848 98.6974 26.9307 0010727 101.9372 258.3008 14.21696274754397 RS-22 1 27939U 03042A 18016.51957273 .00000074 00000-0 21808-4 0 9998 2 27939 97.9663 159.7931 0011656 269.1926 165.1580 14.66649434764584 NOAA-18 1 28654U 05018A 18015.86681421 .00000032 00000-0 42405-4 0 9994 2 28654 099.1638 048.0787 0014249 191.7085 168.3756 14.12363838652185 CO-58 1 28895U 05043F 18015.94980097 .00000120 00000-0 31809-4 0 9993 2 28895 097.8861 173.7719 0016765 186.2992 173.8003 14.63498176651373 Falconsat-3 1 30776U 07006E 18015.79879032 .00002693 00000-0 82062-4 0 9998 2 30776 035.4350 156.3125 0002301 087.5606 272.5383 15.33757051600908 CO-65 1 32785U 08021C 18015.87920196 .00000216 00000-0 29112-4 0 9991 2 32785 097.5536 035.2834 0013158 177.1058 183.0238 14.88045994526521 AAUSAT2 1 32788U 08021F 18016.54897477 .00000500 00000-0 51703-4 0 9991 2 32788 97.5374 49.2575 0013085 132.5269 227.7059 14.94188537527536 DO-64 1 32789U 08021G 18015.94523170 .00000939 00000-0 69099-4 0 9994 2 32789 097.5338 074.4813 0014225 097.6357 262.6486 15.05678988528774 CO-66 1 32791U 08021J 18016.01319907 .00000417 00000-0 48127-4 0 9997 2 32791 97.5465 40.3979 0013958 159.5330 200.6451 14.90445445526847 RS-30 1 32953U 08025A 18016.32614680 .00000017 00000-0 49101-4 0 9990 2 32953 82.5040 107.1312 0019682 178.2660 181.8492 12.43080881437905 PRISM 1 33493U 09002B 18016.35062107 .00000279 00000-0 30494-4 0 9995 2 33493 98.1456 272.4940 0016561 95.7955 264.5110 14.96042148487641 NOAA-19 1 33591U 09005A 18015.88936418 .00000064 00000-0 59908-4 0 9992 2 33591 099.1228 351.0513 0014629 037.6058 322.6133 14.12246272460419 TISAT-1 1 36799U 10035E 18016.42068479 .00000309 00000-0 37612-4 0 9994 2 36799 98.0847 148.8451 0012008 353.1060 6.9990 14.90668638407546 JUGNU 1 37839U 11058B 18015.91804166 .00000313 00000-0 25172-4 0 9993 2 37839 019.9601 240.5765 0018905 008.4559 108.1688 14.12606501323704 SRMSAT 1 37841U 11058D 18015.92346250 .00000307 00000-0 23599-4 0 9996 2 37841 019.9721 286.6082 0011750 257.4808 179.7927 14.10596226323268 AO-71 1 37854U 11061E 18015.92828645 .00000590 00000-0 39158-4 0 9999 2 37854 101.7094 002.9006 0164890 164.8218 195.8027 15.05008586338471 HRBE 1 37855U 11061F 18016.55010744 .00000781 00000-0 48248-4 0 9995 2 37855 101.7226 1.4988 0177907 170.8061 189.6480 15.03985677338857 ALMASAT-1 1 38078U 12006B 18015.87205339 .00030193 39531-5 28752-3 0 9996 2 38078 69.4383 275.6905 0269701 334.6282 149.2287 15.33185922317258 HORYU-2 1 38340U 12025D 18016.51179177 .00000212 00000-0 39319-4 0 9996 2 38340 98.3745 32.9568 0011081 339.4368 20.6392 14.75484514304749 RS-40 1 38735U 12041C 18016.17815065 .00000008 00000-0 -13358-4 0 9996 2 38735 82.4744 191.3858 0016250 285.1137 74.8144 12.42576264248149 BEESAT-3 1 39134U 13015E 18016.44015266 .00001080 00000-0 61039-4 0 9996 2 39134 64.8630 257.6195 0029239 230.2977 129.5571 15.18718445261855 BEESAT-2 1 39136U 13015G 18016.13439605 .00000723 00000-0 47615-4 0 9998 2 39136 64.8693 272.4055 0030585 253.1850 106.5920 15.15802552261545 ZACUBE-1 1 39417U 13066B 18015.88117051 .00000228 00000-0 35432-4 0 9999 2 39417 97.6050 52.5132 0057808 294.5344 64.9850 14.80859974224252 TRITON-1 1 39427U 13066M 18016.05853749 .00000215 00000-0 42326-4 0 9997 2 39427 97.6364 22.1246 0114827 27.4530 333.2678 14.67597754222264 GOMX-1 1 39430U 13066Q 18016.53841119 .00000233 00000-0 50656-4 0 9997 2 39430 97.6812 4.4888 0153080 89.2993 272.5745 14.59006034221046 LO-74 1 39440U 13066AA 18015.63855573 .00000231 00000-0 39373-4 0 9998 2 39440 97.6110 39.8669 0079847 331.8252 27.8649 14.75597675223421 AO-73 1 39444U 13066AE 18016.15879578 .00000266 00000-0 39563-4 0 9990 2 39444 97.6064 54.1072 0056943 289.4382 70.0684 14.81622609223146 SPROUT 1 39770U 14029E 18016.42304294 .00000509 00000-0 63558-4 0 9991 2 39770 97.8751 118.8137 0008829 357.4978 2.6187 14.86630727197818 DUCHIFAT-1 1 40021U 14033M 18016.31211095 .00000493 00000-0 56773-4 0 9994 2 40021 97.9179 294.7581 0012295 324.7522 35.2881 14.90170504194339 NANOSATCBR1 1 40024U 14033Q 18015.80877058 .00000300 00000-0 37529-4 0 9992 2 40024 97.9125 292.7855 0011602 328.7308 31.3218 14.89453482194194 EO-79 1 40025U 14033R 18016.30788858 .00000290 00000-0 37172-4 0 9990 2 40025 97.9094 291.9904 0011871 330.6547 29.4001 14.88617303194192 DTUSAT-2 1 40030U 14033W 18016.30046458 .00000266 00000-0 34929-4 0 9999 2 40030 97.9050 290.8647 0011214 325.6152 34.4338 14.88231389194149 EO-80 1 40032U 14033Y 18016.35191725 .00000256 00000-0 33825-4 0 9997 2 40032 97.9057 290.9203 0011151 325.9548 34.0952 14.88167235194145 ANTELSAT 1 40034U 14033AA 18016.20077163 .00000228 00000-0 41714-4 0 9997 2 40034 97.8322 258.1890 0058329 328.7546 31.0201 14.73847169192299 VELOX-1 1 40057U 14034E 18016.52976854 .00000244 00000-0 41964-4 0 9998 2 40057 98.1948 125.0820 0012422 94.9901 265.2726 14.77323276191258 DAURIA DX 1 1 40071U 14037C 18016.14730275 .00000064 00000-0 15723-4 0 9994 2 40071 98.3551 140.9391 0009833 88.8293 271.4030 14.81112507190493 UKUBE-1 1 40074U 14037F 18016.41749270 .00000279 00000-0 40899-4 0 9992 2 40074 98.3668 146.2303 0006042 87.3193 272.8714 14.83699857190796 HODOYOSHI-1 1 40299U 14070B 18016.40948841 .00000607 00000-0 28983-4 0 9997 2 40299 97.3901 100.8090 0014910 66.3101 63.8071 15.22692027177382 CHUBUSAT-1 1 40300U 14070C 18016.43617025 .00000519 00000-0 26135-4 0 9999 2 40300 97.3797 97.2940 0022165 75.3655 57.2939 15.21342881177206 QSAT-EOS 1 40301U 14070D 18016.50707023 .00001365 00000-0 58293-4 0 9996 2 40301 97.3734 98.0784 0028635 68.5259 56.9983 15.24241309177318 FIREBIRD FU3 1 40377U 15003B 18015.81091593 .00001890 00000-0 81711-4 0 9991 2 40377 99.1056 247.2546 0133374 17.5562 343.0210 15.16583047163227 FIREBIRD FU4 1 40378U 15003C 18016.19669053 .00001837 00000-0 79462-4 0 9997 2 40378 99.1056 247.7676 0133542 16.1735 344.3693 15.16596730163289 GRIFEX 1 40379U 15003D 18016.14758136 .00001234 00000-0 58362-4 0 9991 2 40379 99.1092 244.5659 0140226 26.6961 334.1395 15.13868002163096 NO-84 1 40654U 15025D 18015.31453170 .00005473 00000-0 96631-4 0 01946 2 40654 054.9915 005.5286 0170094 081.6215 280.4104 15.37875101032309 NO-83 1 40655U 15025E 18015.33205708 .00013549 00000-0 16665-3 0 02257 2 40655 054.9786 324.4112 0128706 105.4269 256.1103 15.51283308032514 DEORBITSAIL 1 40719U 15032E 18015.75921206 .00000389 00000-0 63434-4 0 9993 2 40719 97.9612 271.6134 0016325 174.6685 185.4701 14.76305049135683 NUDT-PHONESAT 1 40900U 15049B 18016.07047853 .00002060 00000-0 96821-4 0 9990 2 40900 97.4419 26.1425 0013170 195.0442 165.0403 15.20666410128793 XW-2A 1 40903U 15049E 18016.47388755 .00001778 00000-0 46769-4 0 9997 2 40903 97.4019 49.7217 0013449 211.9074 148.1358 15.39896256130450 XW-2C 1 40906U 15049H 18016.54731369 .00000594 00000-0 35274-4 0 9995 2 40906 97.4576 22.8625 0014750 189.5175 170.5780 15.14975625128539 XW-2D 1 40907U 15049J 18016.51407127 .00000669 00000-0 39150-4 0 9995 2 40907 97.4548 22.5478 0014194 187.2771 172.8258 15.15110778128537 LILACSAT-2 1 40908U 15049K 18015.94571405 .00000357 00000-0 23583-4 0 9990 2 40908 097.4655 021.5392 0015726 190.2081 169.8833 15.13382298128341 XW-2F 1 40910U 15049M 18016.51065139 .00000985 00000-0 54331-4 0 9991 2 40910 97.4558 23.5875 0015032 184.1663 175.9447 15.16198036128462 XW-2B 1 40911U 15049N 18016.52626771 .00000643 00000-0 37836-4 0 9990 2 40911 97.4587 23.0368 0014093 187.7110 172.3908 15.15060627128432 DCBB 1 40912U 15049P 18016.47859703 .00001242 00000-0 63584-4 0 9993 2 40912 97.4509 25.9916 0015235 173.2364 341.4331 15.18376372128649 TW-1C 1 40926U 15051B 18016.41299758 .00006600 00000-0 13383-3 0 9997 2 40926 97.2039 59.5552 0012465 110.3120 14.3700 15.46634337129830 TW-1A 1 40928U 15051D 18015.79125334 .00002616 00000-0 72451-4 0 9992 2 40928 097.2044 052.7248 0013201 144.5194 304.0103 15.37786507129354 IO-86 1 40931U 15052B 18015.33920858 .00000588 00000-0 -72479-5 0 9999 2 40931 005.9955 160.0035 0013795 004.5614 355.4849 14.76560896124379 LQSat 1 40958U 15057A 18016.07328018 .00000002 00000-0 81211-5 0 9999 2 40958 97.9578 92.4388 0019581 103.1862 257.1539 14.73011629122452 AO-85 1 40967U 15058D 18015.24342418 .00000322 00000-0 53936-4 0 02088 2 40967 064.7768 295.5066 0190512 002.5466 357.6574 14.75620939031085 ATHENOXAT-1 1 41168U 15077C 18016.21855781 .00001911 00000-0 68790-4 0 9999 2 41168 14.9843 52.2090 0012255 89.3835 330.3193 15.12381031115330 ChubuSat-2 1 41338U 16012B 18015.92110137 .00000299 00000-0 16684-4 0 9997 2 41338 031.0020 201.0077 0013858 004.7853 355.2913 14.99904577104958 ChubuSat-3 1 41339U 16012C 18016.48647262 .00000267 00000-0 14140-4 0 9994 2 41339 31.0075 196.2331 0013684 17.4827 342.6279 15.00097005105022 Horyu-4 1 41340U 16012D 18015.89423592 .00000436 00000-0 26721-4 0 9994 2 41340 031.0039 195.9402 0014099 022.1875 337.9368 15.00859758104998 OUFTI-1 1 41458U 16025C 18016.39046074 .00001286 00000-0 72266-4 0 9999 2 41458 98.1590 71.0114 0169590 296.8105 61.5867 15.04158315 94617 [email protected] 1 41459U 16025D 18015.83995121 .00000368 00000-0 24315-4 0 9996 2 41459 098.1569 070.3254 0170935 299.0755 059.3444 15.03914348094523 AAUSAT4 1 41460U 16025E 18016.55212517 .00002469 00000-0 13343-3 0 9991 2 41460 98.1518 71.3643 0162629 293.5690 64.8541 15.05171127 94677 LO-87 1 41557U 16033B 18016.31444983 .00001187 00000-0 46239-4 0 9992 2 41557 97.4480 100.7656 0013260 341.0911 18.9834 15.27915231 90965 NuSat2 1 41558U 16033C 18016.37103240 .00001258 00000-0 49117-4 0 9994 2 41558 97.4507 100.8990 0012668 339.8894 20.1845 15.27747470 90969 Lapan A3 1 41603U 16040E 18016.08903450 .00000181 00000-0 11722-4 0 9997 2 41603 97.4342 80.1945 0015030 55.8078 32.1507 15.19498314 86988 Swayam 1 41607U 16040J 18016.11764378 .00001394 00000-0 64450-4 0 9992 2 41607 97.4346 81.1019 0015234 55.8672 304.4007 15.21746540 86974 Pratham 1 41783U 16059A 18015.74724648 .00000069 00000-0 22914-4 0 9998 2 41783 98.1401 79.6038 0033012 212.3049 147.6132 14.62894445 69670 AlSat 1N 1 41789U 16059G 18016.37919868 .00000060 00000-0 20538-4 0 9995 2 41789 98.1404 81.1449 0027803 202.3389 157.6603 14.64119264 69800 ScatSat 1 41790U 16059H 18016.17613939 .00000020 00000-0 16413-4 0 9998 2 41790 98.2826 66.5471 0017947 194.2715 165.7975 14.50857332 69142 TY-1 1 41844U 16066D 18016.44412130 .00001161 00000-0 52578-4 0 9995 2 41844 97.4059 25.4761 0014857 204.3535 294.7980 15.22796015 65782 CAS-2T 1 41845U 16066E 18016.48154965 .00000114 00000-0 28436-4 0 9992 2 41845 98.7647 42.0800 0365839 335.2940 23.1103 14.37852309 62144 Pegasus-1 1 41846U 16066F 18015.87001016 .00000313 00000-0 58780-4 0 9999 2 41846 098.7683 041.0930 0368217 339.0574 019.5855 14.37239881062020 STARS-C 1 41895U 98067KR 18016.47788541 .00133784 00000-0 46550-3 0 9996 2 41895 51.6322 22.8852 0005786 50.4931 309.6585 15.88452000 61526 TO-89 1 41932U 98067KU 18016.16510126 .00021587 00000-0 19541-3 0 9993 2 41932 51.6385 39.0273 0004706 355.1264 4.9686 15.68000059 56857 AOBA-V3LOX3 1 41935U 98067KX 18016.49063347 .00022699 00000-0 19238-3 0 9998 2 41935 51.6375 35.9295 0004348 0.8932 359.2072 15.69580792 57029 OSNSAT 1 41939U 98067KZ 18011.28402027 .11925055 12489-4 54124-3 0 9997 2 41939 051.6147 038.9582 0001091 231.1728 128.9202 16.43639489055773 EO-88 1 42017U 17008BX 18015.91808991 .00001496 00000-0 64837-4 0 9992 2 42017 097.4692 081.7661 0006385 181.2669 178.8553 15.23946671050878 HAVELSAT 1 42700U 98067LH 18016.46488837 .00016215 00000-0 17343-3 0 9993 2 42700 51.6381 46.2602 0005563 39.3794 320.7604 15.64031783 38228 SOMP2 1 42701U 98067LJ 18016.12853230 .00017475 00000-0 19044-3 0 9999 2 42701 51.6378 48.5138 0005548 37.9501 322.1883 15.63486312 38155 Columbia 1 42702U 98067LK 18016.22925931 .00140224 00000-0 64244-3 0 9990 2 42702 51.6306 37.0673 0006892 39.0122 321.1377 15.82729067 38244 PHOENIX 1 42706U 98067LP 18016.11593730 .00015557 00000-0 17077-3 0 9992 2 42706 51.6381 48.4329 0001678 13.5663 346.5376 15.63411046 38074 X-CubeSat 1 42707U 98067LQ 18016.47363349 .00017785 00000-0 18921-3 0 9997 2 42707 51.6360 46.2983 0001949 12.9563 347.1482 15.64099500 38126 qbee 1 42708U 98067LR 18016.49251522 .00016669 00000-0 18002-3 0 9999 2 42708 51.6376 46.4330 0001904 13.8847 346.2199 15.63769556 38082 ZA-AeroSat 1 42713U 98067LU 18016.47847994 .00014804 00000-0 16972-3 0 9990 2 42713 51.6373 47.8493 0002409 342.7084 17.3827 15.62333505 37777 LINK 1 42714U 98067LV 18016.50163295 .00026755 00000-0 25517-3 0 9993 2 42714 51.6349 44.9718 0002856 351.1462 8.9483 15.66571403 37925 UPSat 1 42716U 98067LX 18015.56342921 .00025658 00000-0 25509-3 0 9997 2 42716 051.6374 049.9843 0004225 035.1511 324.9763 15.65551200037794 SpaceCube 1 42717U 98067LY 18016.51231538 .00016787 00000-0 18192-3 0 9998 2 42717 51.6372 46.5705 0004172 40.2790 319.8513 15.63670935 37162 Hoopoe 1 42718U 98067LZ 18016.45127124 .00018754 00000-0 19487-3 0 9991 2 42718 51.6378 46.1646 0004209 37.3913 322.7374 15.64653141 37163 Challenger 1 42721U 98067MA 18016.47803707 .00034313 00000-0 30416-3 0 9999 2 42721 51.6359 44.0623 0006578 22.6380 337.4905 15.68225879 36893 NJUST-1 1 42722U 98067MB 18016.33771120 .00012457 00000-0 14687-3 0 9995 2 42722 51.6382 49.1605 0006778 23.8528 336.2779 15.61767661 36816 UNSW-EC0 1 42723U 98067MC 18016.48579151 .00021348 00000-0 22032-3 0 9994 2 42723 51.6387 46.4047 0006481 22.6852 337.4429 15.64716408 36844 DUTHsat 1 42724U 98067MD 18016.07280890 .00032588 00000-0 29697-3 0 9991 2 42724 51.6367 46.6243 0005836 22.2433 337.8815 15.67576973 36721 LO-90 1 42725U 98067ME 18015.90512621 .00017501 00000-0 19583-3 0 9994 2 42725 051.6382 050.7732 0005856 023.6165 336.5098 15.62802643036671 nSIGHT1 1 42726U 98067MF 18016.45505245 .00006866 00000-0 92833-4 0 9992 2 42726 51.6396 50.7109 0006242 29.8024 330.3323 15.59009944 36714 QBITO 1 42728U 98067MH 18016.48074362 .00018244 00000-0 19758-3 0 9995 2 42728 51.6397 47.1409 0003602 30.4885 329.6319 15.63619888 36568 Aalto-2 1 42729U 98067MJ 18016.47688318 .00017947 00000-0 19374-3 0 9990 2 42729 51.6381 47.0940 0003589 29.4235 330.6961 15.63715782 36578 SUSat 1 42730U 98067MK 18016.50787990 .00016743 00000-0 18475-3 0 9996 2 42730 51.6376 47.2935 0003635 28.1357 331.9834 15.63209877 36568 i-INSPIRE II 1 42731U 98067ML 18016.33402728 .00021404 00000-0 21802-3 0 9999 2 42731 51.6368 46.8597 0006366 339.8745 20.1998 15.65046950 36602 PolyITAN-2-SAU 1 42732U 98067MM 18016.33424728 .00018719 00000-0 20018-3 0 9997 2 42732 51.6375 47.6204 0006378 338.3321 21.7403 15.63909334 36590 SNUSAT-1 1 42733U 98067MN 18016.50913724 .00015981 00000-0 17661-3 0 9994 2 42733 51.6377 47.2931 0006500 340.5508 19.5238 15.63198312 36615 ExAlta-1 1 42734U 98067MP 18016.33971415 .00022678 00000-0 23046-3 0 9992 2 42734 51.6361 46.8979 0007836 1.2075 358.8938 15.65054248 36559 Aoxiang-1 1 42735U 98067MQ 18016.51727047 .00013097 00000-0 15308-3 0 9990 2 42735 51.6375 48.0998 0007300 21.5587 338.5713 15.61935483 37977 BeEagleSat 1 42736U 98067MR 18016.48225376 .00015505 00000-0 17555-3 0 9997 2 42736 51.6372 47.8640 0007170 20.1469 339.9807 15.62595200 36669 Atlantis 1 42737U 98067MS 18016.10728494 .00093601 00000-0 54317-3 0 9996 2 42737 51.6285 40.7615 0007388 20.6431 339.4867 15.77727606 36611 CAS-4B 1 42759U 17034B 18016.51564565 .00000093 00000-0 19332-4 0 9999 2 42759 43.0172 195.8326 0008938 244.1405 220.7980 15.09165843 32531 CAS-4A 1 42761U 17034D 18016.56102448 .00000089 00000-0 19100-4 0 9993 2 42761 43.0165 195.4510 0009568 244.8120 164.8967 15.09241310 32535 UCLSat 1 42765U 17036A 18016.36784496 .00001222 00000-0 57458-4 0 9994 2 42765 97.4231 78.5241 0010516 245.2126 114.8016 15.21436345 31621 NIUSat 1 42766U 17036B 18015.88749530 .00001002 00000-0 49535-4 0 9994 2 42766 097.4234 077.6483 0014867 233.1975 126.7896 15.20057432031391 LituanicaSAT 2 1 42768U 17036D 18016.36509530 .00001916 00000-0 90071-4 0 9999 2 42768 97.4241 78.2336 0014833 234.4498 125.5356 15.20721027 31488 Aalto 1 1 42775U 17036L 18015.82523518 .00000854 00000-0 42220-4 0 9992 2 42775 097.4231 077.7243 0013009 233.8797 126.1234 15.20465109031348 URSA MAIOR 1 42776U 17036M 18015.81874260 .00000899 00000-0 44190-4 0 9992 2 42776 097.4235 077.7413 0012892 234.0639 125.9401 15.20528118031342 Max Valier Sat 1 42778U 17036P 18015.89451664 .00000928 00000-0 44973-4 0 9993 2 42778 097.4255 077.9897 0011440 239.1273 120.8838 15.20977331031356 Pegasus 1 42784U 17036V 18016.38752329 .00001097 00000-0 52159-4 0 9990 2 42784 97.4234 78.5046 0011045 245.2280 114.7807 15.21270219 31439 NUDATSat 1 42787U 17036Y 18015.89413071 .00001658 00000-0 76341-4 0 9998 2 42787 097.4238 078.0967 0010642 247.0860 112.9253 15.21677225031207 SUCHAI 1 1 42788U 17036Z 18015.57896616 .00001337 00000-0 62515-4 0 9996 2 42788 097.4236 077.7501 0010657 248.4304 111.5796 15.21474111031385 SKCUBE 1 42789U 17036AA 18015.70772834 .00001248 00000-0 58547-4 0 9998 2 42789 097.4234 077.8806 0010484 247.9260 112.0863 15.21467483031325 VZLUSAT 1 1 42790U 17036AB 18015.88613188 .00001681 00000-0 77282-4 0 9993 2 42790 097.4234 078.0970 0010182 247.3323 112.6837 15.21709213031351 VENTA 1 1 42791U 17036AC 18015.76127446 .00001251 00000-0 58566-4 0 9995 2 42791 097.4234 077.9601 0010078 248.3733 111.6430 15.21538158031324 Robusta 1B 1 42792U 17036AD 18015.88751104 .00001310 00000-0 61089-4 0 9993 2 42792 097.4232 078.0916 0010035 248.2064 111.8104 15.21602624031367 D-SAT 1 42794U 17036AF 18015.88527460 .00000246 00000-0 26828-4 0 9990 2 42794 097.6150 076.1177 0128716 069.1903 292.3048 14.90762457031038 BIRD-J 1 42820U 98067MU 18015.51049560 .00018094 00000-0 21028-3 0 9999 2 42820 51.6375 54.1255 0002970 324.8477 35.2321 15.61804753 29951 BIRD-G 1 42821U 98067MV 18016.48620429 .00014306 00000-0 16902-3 0 9993 2 42821 51.6374 49.3917 0003008 332.0419 28.0413 15.61582088 30084 BIRD-M 1 42822U 98067MW 18015.90728398 .00015982 00000-0 18755-3 0 9993 2 42822 051.6377 052.2773 0003042 331.8808 028.2021 15.61655051030019 BIRD-B 1 42823U 98067MX 18016.48476974 .00014743 00000-0 17322-3 0 9991 2 42823 51.6381 49.3920 0006081 346.3731 13.7097 15.61686622 30085 BIRD-N 1 42824U 98067MY 18016.49449897 .00014547 00000-0 17174-3 0 9994 2 42824 51.6386 49.4638 0005939 347.2320 12.8523 15.61575528 30078 TechnoSat 1 42829U 17042E 18016.47111455 .00000217 00000-0 27550-4 0 9996 2 42829 97.6081 284.4316 0014036 350.4004 9.6944 14.90754486 27735 Mayak 1 42830U 17042F 18016.51755209 .00000579 00000-0 63821-4 0 9996 2 42830 97.6088 284.5381 0014300 347.5815 12.5049 14.91069487 27738 OBJECT MZ 1 42910U 98067MZ 18015.54452509 .00012378 00000-0 15701-3 0 9993 2 42910 51.6373 55.8413 0007045 2.0957 358.0064 15.59845038 23524 OBJECT NA 1 42911U 98067NA 18016.55402810 .00013335 00000-0 16602-3 0 9991 2 42911 51.6381 50.6066 0006625 1.8207 358.2809 15.60261754 23662 OBJECT NB 1 42912U 98067NB 18016.51383799 .00012273 00000-0 15527-3 0 9997 2 42912 51.6377 51.0534 0006099 13.8740 346.2419 15.59930843 23678 OBJECT NC 1 42913U 98067NC 18015.73057726 .00023409 00000-0 25897-3 0 9993 2 42913 051.6370 053.3349 0005264 017.8513 342.2665 15.62885540023571 OBJECT ND 1 42914U 98067ND 18016.20881225 .00012259 00000-0 15687-3 0 9993 2 42914 51.6384 52.7973 0006000 7.3180 352.7899 15.59629436 23612 QIKCOM-1 1 42983U 98067NF 18016.50569690 .00003122 00000-0 52476-4 0 9998 2 42983 51.6439 54.4842 0004502 5.1917 139.3532 15.55155005 12604 AO-91 1 43017U 17073E 18016.49352078 .00000888 00000-0 74806-4 0 9990 2 43017 97.6974 314.0628 0261640 45.6085 316.6228 14.77841890 8702 EcAMSat 1 43019U 98067NG 18016.47972260 .00004475 00000-0 71440-4 0 9990 2 43019 51.6404 54.6166 0005085 334.9906 25.0838 15.55424705 94927 PICSAT 1 43131U 18004W 18016.14945972 .00001397 00000-0 63934-4 0 9991 2 43131 97.5555 78.2886 0008446 269.6347 90.3921 15.22207789 588 AO-92 1 43137U 18004AC 18016.14904612 .00000966 00000-0 44977-4 0 9990 2 43137 97.5557 78.2893 0008040 272.7076 87.3239 15.22365279 574 /EX